Location: Boiro
(42.6475°N, 8.8834°W)
Time: 19:37:07
(UTC+01:00)

Vanguard 2 Rocket - All Passes

Search period start: 06 December 2021 00:00
Search period end: 16 December 2021 00:00
Orbit: 555 x 3324 km, 32.9° (Epoch: 06 December)

Date Brightness Start Highest point End Pass type
(mag) Time Alt. Az. Time Alt. Az. Time Alt. Az.
06 Dec - 00:16:45 10° W 00:26:03 32° SSW 00:39:57 10° SSE visible
06 Dec - 02:34:45 10° WSW 02:41:23 14° SW 02:49:03 10° S night (unlit)
06 Dec - 18:53:58 10° SW 18:58:26 28° SSE 19:05:05 10° ESE visible
06 Dec - 21:04:48 10° WSW 21:11:11 44° S 21:22:06 10° ESE visible
06 Dec - 23:17:03 10° WSW 23:25:21 36° SSW 23:38:32 10° SE visible
07 Dec - 01:32:19 10° WSW 01:40:25 19° SSW 01:50:46 10° S night (unlit)
07 Dec - 17:55:56 10° SSW 17:59:14 19° SSE 18:03:31 10° ESE daylight
07 Dec - 20:05:59 10° WSW 20:11:23 39° S 20:20:16 10° ESE visible
07 Dec - 22:17:43 10° WSW 22:24:55 38° S 22:36:52 10° SE visible
08 Dec - 00:31:28 10° WSW 00:39:35 23° SSW 00:50:54 10° SSE night (unlit)
08 Dec - 16:59:23 10° SSE 17:00:09 10° SSE 17:00:57 10° SE daylight
08 Dec - 19:07:21 10° SW 19:11:52 32° SSE 19:18:45 10° ESE visible
08 Dec - 21:18:37 10° WSW 21:24:48 39° S 21:35:08 10° ESE visible
08 Dec - 23:31:24 10° WSW 23:38:57 27° SSW 23:50:13 10° SSE visible
09 Dec - 01:51:04 10° SW 01:53:55 11° SW 01:56:59 10° SSW night (unlit)
09 Dec - 18:08:54 10° SSW 18:12:34 24° SSE 18:17:31 10° ESE daylight
09 Dec - 20:19:42 10° WSW 20:24:58 38° S 20:33:32 10° ESE visible
09 Dec - 22:31:49 10° WSW 22:38:34 30° SSW 22:49:06 10° SE visible
10 Dec - 00:47:27 10° WSW 00:53:10 15° SSW 01:00:13 10° S night (unlit)
10 Dec - 17:10:50 10° SSW 17:13:24 16° SSE 17:16:24 10° ESE daylight
10 Dec - 19:20:56 10° WSW 19:25:24 34° S 19:32:14 10° ESE visible
10 Dec - 21:32:36 10° WSW 21:38:28 32° S 21:47:49 10° SE visible
10 Dec - 23:46:27 10° WSW 23:52:36 18° SSW 00:00:51 10° SSE visible
11 Dec - 18:22:16 10° SW 18:26:02 27° SSE 18:31:14 10° ESE visible
11 Dec - 20:33:34 10° WSW 20:38:37 32° S 20:46:34 10° SE visible
11 Dec - 22:46:24 10° WSW 22:52:15 21° SSW 23:00:36 10° SSE visible
12 Dec - 17:23:44 10° SSW 17:26:49 20° SSE 17:30:32 10° ESE daylight
12 Dec - 19:34:40 10° WSW 19:39:01 31° S 19:45:31 10° ESE visible
12 Dec - 21:46:51 10° WSW 21:52:10 24° SSW 21:59:57 10° SSE visible
13 Dec - 00:04:38 10° SW 00:06:17 10° SSW 00:08:01 10° SSW night (unlit)
13 Dec - 16:25:28 10° SSW 16:27:37 14° SSE 16:29:55 10° SE daylight
13 Dec - 18:35:51 10° SW 18:39:37 28° S 18:44:45 10° ESE visible
13 Dec - 20:47:38 10° WSW 20:52:19 25° S 20:59:12 10° SE visible
13 Dec - 23:02:12 10° SW 23:05:59 13° SSW 23:10:33 10° S visible
14 Dec - 17:37:03 10° SW 17:40:20 24° S 17:44:18 10° ESE daylight
14 Dec - 19:48:35 10° WSW 19:52:41 26° S 19:58:31 10° SE visible
14 Dec - 22:01:52 10° SW 22:05:53 16° SSW 22:11:06 10° SSE visible
15 Dec - 16:38:17 10° SSW 16:41:06 19° SSE 16:44:08 10° ESE daylight
15 Dec - 18:49:37 10° WSW 18:53:14 25° S 18:58:02 10° SE visible
15 Dec - 21:02:10 10° SW 21:06:01 18° SSW 21:11:09 10° SSE visible
